Regional Weather Roundup
Issued by NWS

Home | Current Version | Previous Version | Text Only | Print | Product List | Glossary Off
Versions: 1 2 3 4 5 6 7 8 9 10 11 12 13 14 15 16 17 18 19 20 21 22 23 24 25 26 27 28 29 30 31 32 33 34 35 36 37 38 39 40 41 42 43 44 45 46 47 48 49 50

000
ASUS43 KDMX 180101
RWRIA

WEATHER ROUNDUP FOR IOWA
NATIONAL WEATHER SERVICE DES MOINES IA
700 PM CST SUN DEC 17 2017

NOTE: "FAIR" INDICATES FEW OR NO CLOUDS BELOW 12,000 FEET WITH NO
SIGNIFICANT WEATHER AND/OR OBSTRUCTIONS TO VISIBILITY.

* - THESE STATIONS ARE NOT NWS STATIONS...THUS NOT UNDER NWS
QUALITY CONTROL.  THEY ALSO DO NOT REPORT WEATHER SUCH
AS PRECIPITATION OR FOG.

IAZ001>003-012>014-020>022-031>034-043>046-180200-
   NORTHWEST IOWA

CITY           SKY/WX    TMP DP  RH WIND       PRES   REMARKS
CARROLL *      CLOUDY    28  25  86 W3        29.98F FOG
CHEROKEE *     CLOUDY    32  28  86 CALM      29.99R
DENISON *      PTCLDY    28  27  93 NW3       30.00S
LE MARS *      CLOUDY    32  28  86 CALM      29.98S
ORANGE CITY *  CLOUDY    30  28  93 CALM      29.97S
SHELDON *      CLOUDY    21  21 100 S5        29.95S FOG     WCI  15
SIOUX CITY     MOCLDY    28  24  85 W5        30.00R WCI  23
SPENCER        CLOUDY    30  26  85 CALM      29.98R
STORM LAKE *   CLOUDY    30  27  86 CALM      29.97R
$$

IAZ055>058-069>071-079>083-090>094-180200-
   SOUTHWEST IOWA

CITY           SKY/WX    TMP DP  RH WIND       PRES   REMARKS
ATLANTIC *     PTCLDY    28  25  86 CALM      29.99R
AUDUBON *      PTCLDY    25  21  86 CALM      29.98F
CLARINDA *     CLOUDY    34  34 100 W6        30.02  FOG     WCI  29
COUNCIL BLFS * PTCLDY    30  30 100 N5        29.99R WCI  25
CRESTON *      CLOUDY    32  32 100 W6        29.99S FOG     WCI  26
HARLAN  *      PTCLDY    27  25  93 CALM      30.02S
LAMONI         CLOUDY    40  38  93 W5        29.97S
RED OAK *      MOCLDY    32  30  93 CALM      30.00S FOG
SHENANDOAH *   CLOUDY    34  32  93 W5        30.01R FOG     WCI  30
$$

IAZ047>049-059>061-072>074-084-180200-
   CENTRAL IOWA

CITY           SKY/WX    TMP DP  RH WIND       PRES   REMARKS
AMES           CLOUDY    25  23  92 NW5       29.98R FOG     WCI  19
ANKENY *       CLOUDY    37  30  75 SW5       29.99S WCI  34
BOONE *        CLOUDY    30  27  86 N5        29.96S FOG     WCI  25
CHARITON *     CLOUDY    37  37 100 CALM      29.97S FOG
DES MOINES     CLOUDY    36  31  82 W7        29.98S WCI  30
GRINNELL*      CLOUDY    36  33  88 SW3       29.98R
KNOXVILLE *    CLOUDY    37  36  93 W5        29.96S FOG     WCI  34
MARSHALLTOWN   CLOUDY    34  30  85 N5        29.97R WCI  30
NEWTON *       CLOUDY    36  34  93 SW8       29.97S WCI  29
PELLA *        CLOUDY    37  36  96 CALM      29.98S FOG
$$

IAZ004>006-015-016-023>025-035-036-180200-
   NORTH CENTRAL IOWA

CITY           SKY/WX    TMP DP  RH WIND       PRES   REMARKS
ALGONA *       CLOUDY    28  30 100 S3        29.97S
CLARION *      CLOUDY    30  30 100 CALM      29.98R
ESTHERVILLE    CLOUDY    26  24  92 S3        29.97R
FORT DODGE *   CLOUDY    30  28  92 CALM      29.98S
MASON CITY     CLOUDY    28  27  96 CALM      29.98S FOG
FOREST CITY *  CLOUDY    30  28  93 CALM      29.97S FOG
WEBSTER CITY * CLOUDY    32  28  86 N5        29.96S WCI  27
IOWA FALLS *   CLOUDY    33  29  86 CALM      29.99R
$$

IAZ007>011-017>019-026>030-037>042-050>054-066-180200-
   NORTHEAST IOWA

CITY           SKY/WX    TMP DP  RH WIND       PRES   REMARKS
CEDAR RAPIDS   CLOUDY    35  34  96 S5        29.97R FOG     WCI  31
CLINTON *      CLOUDY    37  34  89 S3        30.00R
DECORAH *      CLOUDY    32  30  93 CALM      29.97R FOG
DUBUQUE        CLOUDY    33  31  92 CALM      29.98S FOG
MONTICELLO *   CLOUDY    36  34  93 CALM      29.97S FOG
OELWEIN *      CLOUDY    34  34 100 CALM      29.97R FOG
WATERLOO       CLOUDY    33  28  81 NW3       29.98R HAZE
$$

IAZ064-065-067-068-078-180200-
   EAST CENTRAL IOWA

CITY           SKY/WX    TMP DP  RH WIND       PRES   REMARKS
DAVENPORT      CLOUDY    38  36  92 CALM      30.01R
IOWA CITY      CLOUDY    37  36  96 CALM      30.00S FOG
MT. PLEASANT * CLOUDY    41  41 100 SE6       29.98F FOG
MUSCATINE *    CLOUDY    39  37  93 CALM      29.99F FOG
QUAD CITIES    LGT RAIN  40  39  97 CALM      29.99S FOG
$$

IAZ062-063-075>077-085>089-095>099-180200-
   SOUTHEAST IOWA

CITY           SKY/WX    TMP DP  RH WIND       PRES   REMARKS
BURLINGTON     CLOUDY    42  41  96 CALM      29.99S
FAIRFIELD *    CLOUDY    41  41 100 CALM      29.98S FOG
FORT MADISON * CLOUDY    43  43 100 CALM      30.00S FOG
KEOKUK *       CLOUDY    45  43  93 MISG      29.99S
OTTUMWA        CLOUDY    40  38  93 N3        29.98S FOG
WASHINGTON *   CLOUDY    37  37 100 CALM      29.99F FOG
$$

ABBREVIATIONS USED IN REMARKS
   TC - TEMPERATURES IN CELSIUS
  WCI - WIND CHILL INDEX
   HX - HEAT INDEX
  VSB - VISIBILITY
$$




USA.gov is the U.S. government's official web portal to all federal, state and local government web resources and services.